Location: Drummondville
(45.8830°N, 72.4830°W)
Time: 15:42:04
(UTC-04:00)

Envisat - Visible Passes

Search period start: 19 July 2018 00:00
Search period end: 29 July 2018 00:00
Orbit: 764 x 766 km, 98.2° (Epoch: 19 July)

Date Brightness Start Highest point End Pass type
(mag) Time Alt. Az. Time Alt. Az. Time Alt. Az.
20 Jul 5.5 21:10:35 10° SW 21:14:16 20° W 21:17:58 10° NW visible
22 Jul 5.9 21:38:32 10° WSW 21:40:10 11° W 21:41:49 10° WNW visible
25 Jul 5.7 21:26:05 10° WSW 21:28:51 15° W 21:31:38 10° NW visible
28 Jul 5.6 21:14:06 10° SW 21:17:33 18° W 21:21:02 10° NW visible
